627  
ASUS43 KIWX 160010  
RWRIWX  
 
KIWX WEATHER ROUNDUP  
NATIONAL WEATHER SERVICE NORTHERN INDIANA  
800 PM EDT MON JUL 15 2019  
 
NOTE: "FAIR" INDICATES FEW OR NO CLOUDS BELOW 12,000 FEET WITH NO  
SIGNIFICANT WEATHER AND/OR S TO VISIBILITY
.  
 
* THESE STATIONS ARE NOT UNDER NWS QUALITY CONTROL. THEY ALSO MAY NOT  
REPORT WEATHER SUCH AS PRECIPITATION OR FOG.
 
 
INZ001>027-160100-  
NORTHERN INDIANA  
 
CITY SKY/WX TMP DP RH WIND PRES REMARKS
 
GARY* MOSUNNY 86 61 42 SW10G30 29.99R  
VALPARAISO FAIR 86 63 45 SW14 30.02R  
6HR MIN TEMP: 86; 6HR MAX TEMP: 92;  
 
MICHIGAN CITY* FAIR 84 39 20 SW15 30.01R  
LAPORTE* FAIR N/A N/A N/A SW15 30.02R  
KNOX* FAIR 82 61 47 MISG 30.02R  
SOUTH BEND FAIR 86 66 51 SW10 30.01R  
6HR MIN TEMP: 85; 6HR MAX TEMP: 90;  
 
ELKHART* SUNNY 86 64 48 W10 30.02R  
GOSHEN FAIR 85 66 53 SW9 30.01S  
6HR MIN TEMP: 84; 6HR MAX TEMP: 90;  
 
MONTICELLO* FAIR 82 68 62 SW10 30.02S  
6HR MIN TEMP: 82; 6HR MAX TEMP: 90;  
 
LOGANSPORT* FAIR 81 68 65 SW6 30.05R  
ROCHESTER* FAIR 86 64 48 SW13G21 30.04R  
WARSAW* FAIR 84 66 54 SW3 30.02S  
KENDALLVILLE* FAIR 85 65 52 SW7 30.04S  
AUBURN* FAIR 82 68 61 SW3 30.04R  
FORT WAYNE PTSUNNY 86 69 56 SW6 30.03R  
6HR MIN TEMP: 86; 6HR MAX TEMP: 89;  
 
HUNTINGTON* CLOUDY 84 68 57 SW3 30.03R  
6HR MIN TEMP: 84; 6HR MAX TEMP: 88;  
 
PERU/GRISSOM FAIR 83 68 59 SW12 30.04R  
6HR MIN TEMP: 83; 6HR MAX TEMP: 90;  
 

 
INZ028>050-160100-  
CENTRAL INDIANA  
 
CITY SKY/WX TMP DP RH WIND PRES REMARKS
 
LAFAYETTE FAIR 81 69 67 VRB7 30.03R  
6HR MIN TEMP: 81; 6HR MAX TEMP: 90;  
 
KOKOMO* FAIR 84 68 58 W9 30.05R  
6HR MIN TEMP: 84; 6HR MAX TEMP: 92;  
 
MUNCIE* FAIR 87 68 52 SW9 30.05S  
6HR MIN TEMP: 87; 6HR MAX TEMP: 91;  
 
INDIANAPOLIS LGT RAIN 79 68 69 S12 30.07R  
6HR MIN TEMP: 79; 6HR MAX TEMP: 90; 6HR PCP: TRACE;  
 

 
MIZ043>046-050>051-056>058-064>065-071>073-077>080-160100-  
SOUTHWEST LOWER MICHIGAN  
 
CITY SKY/WX TMP DP RH WIND PRES REMARKS
 
BATTLE CREEK FAIR 87 65 47 SW12 30.01R  
6HR MIN TEMP: 87; 6HR MAX TEMP: 91;  
 
BENTON HARBOR FAIR 87 65 47 W12G25 29.99R  
6HR MIN TEMP: 86; 6HR MAX TEMP: 90;  
 
COLDWATER* FAIR 86 63 46 SW12 30.02R  
6HR MIN TEMP: 86; 6HR MAX TEMP: 90;  
 
HILLSDALE* FAIR 85 65 51 SW9 30.03R  
6HR MIN TEMP: 85; 6HR MAX TEMP: 90;  
 
HOLLAND FAIR 87 67 51 SW16G22 29.99R  
6HR MIN TEMP: 86; 6HR MAX TEMP: 91;  
 
GRAND RAPIDS FAIR 87 65 47 W21G29 29.99R  
6HR MIN TEMP: 87; 6HR MAX TEMP: 90;  
 
KALAMAZOO FAIR 88 66 48 SW12G17 30.01R  
6HR MIN TEMP: 88; 6HR MAX TEMP: 93;  
 
STURGIS* FAIR 86 69 55 W8 30.01R  
6HR MIN TEMP: 86; 6HR MAX TEMP: 91;  
 
THREE RIVERS* FAIR 88 66 48 SW6 30.02R  
6HR MIN TEMP: 88; 6HR MAX TEMP: 92;  
 

 
OHZ001>008-015>018-024>025-160100-  
NORTHWEST OHIO  
 
CITY SKY/WX TMP DP RH WIND PRES REMARKS
 
WAUSEON* N/A N/A N/A N/A MISG 30.01  
DEFIANCE FAIR 87 66 49 SW6 30.02R  
6HR MIN TEMP: 79; 6HR MAX TEMP: 91; 6HR PCP: 0.04;  
 
FINDLAY FAIR 81 69 67 SW20G32 30.03R  
6HR MIN TEMP: 82; 6HR MAX TEMP: 94; 6HR PCP: TRACE;  
 
OTTAWA* FAIR 81 70 69 S15 30.05R  
TOLEDO EXPRESS FAIR 81 76 84 S5 30.00S  
6HR MIN TEMP: 76; 6HR MAX TEMP: 94; 6HR PCP: 0.23;  
 
LIMA LGT RAIN 76 71 85 S7 30.05F  
6HR MIN TEMP: 72; 6HR MAX TEMP: 91; 6HR PCP: 0.37;  
 

 
AND FOR LAKE MICHIGAN COASTAL AND OPEN LAKE BUOY OBSERVATIONS  
 
STATION/POSITION TEMP WIND PRES VSBY WAVE
 
AIR SEA DIR/SP/G HT/PER  
(F) (DEG/KT/KT) (MB) (MI) (FT/S)  
CALUMET HARBOR 86 210/ 11/ 19 1014.4  
MICHIGAN CITY 85 210/ 13/ 18 N/A  
BURNS HARBOR 85 230/ 10/ 16 1015.9  
SAINT JOSEPH 83 210/ 10/ 12 1016.6  
SOUTH LAKE BUOY 73 69 210/ 6/ 6 1014.7R 1/ 3  
4 MI NW BRIDGMAN 80 76 280/ 12/ 14 1015.2 2/ 3  
MICHIGAN CITY 82 75 220/ 16/ 19 N/A 2/ 3  
 

 

 
 
 
CLICK HERE TO GO TO PREVIOUS BULLETINS.

The Nexlab IN Page
The Nexlab OH Page
The Nexlab MI Page Main Text Page